Date String (YYYY-MM-DD hh:mm:ss) UTC,Instrument flags,Ambient pressure (hPa),Sample flow (lpm),Bypass flow (lpm),Sample temperature (°C),Ambient temperature (°C),ASC tube jacket temperature (°C),LED temperature (°C),Box temperature (°C),Sample RH (%),Span deviation,Mass concentration (μg/m³),Mass concentration (μg/m³),Mass concentration (μg/m³)
DateTimeUTC,F1_M11,P_M11,Q1_M11,Q2_M11,T1_M11,T2_M11,T3_M11,T4_M11,T5_M11,U1_M11,ZSPAN_M11,X2_M11,X0_M11,X1_M11
2022-06-27 08:00:00,,0834.9,5.00,0.00,30.0,28.8,00.0,39.0,31.8,23.4,0000.0,0003.97,0010.16,0003.45
2022-06-27 08:01:00,,0834.8,5.00,0.00,30.0,28.8,00.0,38.9,31.8,23.4,0000.0,0003.96,0010.07,0003.45
2022-06-27 08:02:00,,0834.8,5.02,0.00,30.0,28.8,00.0,38.9,31.8,23.5,0000.0,0003.92,0009.08,0003.44
2022-06-27 08:03:00,,0834.7,5.00,0.00,30.0,28.8,00.0,38.9,31.8,23.5,0000.0,0003.87,0008.86,0003.43
2022-06-27 08:04:00,,0834.7,5.00,0.00,30.0,28.8,00.0,38.9,31.7,23.5,0000.0,0003.87,0008.26,0003.43
2022-06-27 08:05:00,,0834.7,5.00,0.00,30.0,28.8,00.0,38.9,31.7,23.6,0000.0,0003.86,0008.26,0003.42
2022-06-27 08:06:00,,0834.7,5.00,0.00,30.0,28.8,00.0,38.9,31.8,23.6,0000.0,0003.84,0008.11,0003.41
2022-06-27 08:07:00,,0834.7,4.99,0.00,30.0,28.7,00.0,38.9,31.8,23.6,0000.0,0003.82,0008.09,0003.41
2022-06-27 08:08:00,,0834.7,5.01,0.00,30.0,28.7,00.0,38.9,31.8,23.5,0000.0,0003.82,0008.06,0003.40
2022-06-27 08:09:00,,0834.7,5.01,0.00,30.0,28.7,00.0,38.9,31.8,23.5,0000.0,0003.79,0008.05,0003.39
2022-06-27 08:10:00,,0834.7,5.01,0.00,30.0,28.7,00.0,38.9,31.7,23.5,0000.0,0003.78,0007.18,0003.39
2022-06-27 08:11:00,,0834.7,5.00,0.00,30.0,28.7,00.0,38.9,31.7,23.5,0000.0,0003.78,0006.70,0003.38
2022-06-27 08:12:00,,0834.7,4.99,0.00,30.0,28.7,00.0,38.9,31.7,23.5,0000.0,0003.80,0006.74,0003.38
2022-06-27 08:13:00,,0834.7,4.99,0.00,29.9,28.7,00.0,38.9,31.7,23.5,0000.0,0003.79,0006.70,0003.39
2022-06-27 08:14:00,,0834.7,5.00,0.00,29.9,28.7,00.0,38.9,31.7,23.5,0000.0,0003.80,0006.95,0003.38
2022-06-27 08:15:00,,0834.7,5.00,0.00,29.9,28.7,00.0,38.8,31.7,23.5,0000.0,0003.80,0007.06,0003.38
2022-06-27 08:16:00,,0834.7,5.00,0.00,29.9,28.7,00.0,38.8,31.7,23.6,0000.0,0003.81,0007.00,0003.39
2022-06-27 08:17:00,,0834.7,5.00,0.00,29.9,28.7,00.0,38.8,31.7,23.6,0000.0,0003.83,0007.04,0003.40
2022-06-27 08:18:00,,0834.7,5.00,0.00,29.9,28.7,00.0,38.8,31.7,23.5,0000.0,0003.84,0007.20,0003.41
2022-06-27 08:19:00,,0834.7,5.00,0.00,29.9,28.7,00.0,38.8,31.6,23.5,0000.0,0003.84,0007.76,0003.40
2022-06-27 08:20:00,,0834.7,5.00,0.00,29.9,28.6,00.0,38.8,31.6,23.5,0000.0,0003.87,0007.85,0003.41
2022-06-27 08:21:00,,0834.7,5.00,0.00,29.9,28.6,00.0,38.8,31.6,23.5,0000.0,0003.89,0007.91,0003.42
2022-06-27 08:22:00,,0834.7,5.00,0.00,29.9,28.6,00.0,38.8,31.6,23.5,0000.0,0003.88,0008.38,0003.42
2022-06-27 08:23:00,,0834.7,5.01,0.00,29.9,28.6,00.0,38.8,31.6,23.5,0000.0,0003.86,0008.49,0003.43
2022-06-27 08:24:00,,0834.7,4.99,0.00,29.9,28.6,00.0,38.8,31.6,23.5,0000.0,0003.87,0008.49,0003.42
2022-06-27 08:25:00,,0834.7,4.99,0.00,29.8,28.6,00.0,38.8,31.6,23.5,0000.0,0003.90,0008.52,0003.42
2022-06-27 08:26:00,,0834.7,5.00,0.00,29.8,28.6,00.0,38.8,31.6,23.4,0000.0,0003.90,0008.56,0003.43
2022-06-27 08:27:00,,0834.7,5.00,0.00,29.8,28.6,00.0,38.8,31.6,23.4,0000.0,0003.90,0008.64,0003.42
2022-06-27 08:28:00,,0834.7,5.00,0.00,29.8,28.6,00.0,38.7,31.6,23.5,0000.0,0003.88,0008.59,0003.42
2022-06-27 08:29:00,,0834.7,4.99,0.00,29.8,28.6,00.0,38.7,31.6,23.4,0000.0,0003.87,0008.45,0003.42
2022-06-27 08:30:00,,0834.7,5.00,0.00,29.8,28.6,00.0,38.7,31.6,23.4,0000.0,0003.89,0008.04,0003.43
2022-06-27 08:31:00,,0834.7,4.99,0.00,29.8,28.6,00.0,38.7,31.6,23.4,0000.0,0003.85,0007.83,0003.42
2022-06-27 08:32:00,,0834.7,4.99,0.00,29.8,28.6,00.0,38.7,31.6,23.4,0000.0,0003.85,0007.83,0003.42
2022-06-27 08:33:00,,0834.7,5.00,0.00,29.8,28.6,00.0,38.7,31.6,23.4,0000.0,0003.84,0007.13,0003.42
2022-06-27 08:34:00,,0834.7,5.00,0.00,29.8,28.6,00.0,38.7,31.6,23.4,0000.0,0003.81,0006.77,0003.41
2022-06-27 08:35:00,,0834.7,5.01,0.00,29.8,28.6,00.0,38.7,31.6,23.4,0000.0,0003.80,0006.68,0003.40
2022-06-27 08:36:00,,0834.7,5.00,0.00,29.8,28.6,00.0,38.7,31.5,23.4,0000.0,0003.76,0006.48,0003.40
2022-06-27 08:37:00,,0834.7,5.00,0.00,29.8,28.5,00.0,38.7,31.5,23.4,0000.0,0003.76,0006.29,0003.39
2022-06-27 08:38:00,,0834.7,5.00,0.00,29.8,28.5,00.0,38.7,31.5,23.4,0000.0,0003.77,0006.14,0003.39
2022-06-27 08:39:00,,0834.7,4.99,0.00,29.8,28.5,00.0,38.7,31.5,23.4,0000.0,0003.78,0006.59,0003.39
2022-06-27 08:40:00,,0834.6,4.99,0.00,29.8,28.5,00.0,38.7,31.5,23.4,0000.0,0003.80,0007.50,0003.39
2022-06-27 08:41:00,,0834.6,4.99,0.00,29.8,28.5,00.0,38.7,31.5,23.4,0000.0,0003.78,0007.83,0003.38
2022-06-27 08:42:00,,0834.7,5.01,0.00,29.8,28.5,00.0,38.7,31.5,23.4,0000.0,0003.78,0007.87,0003.38
2022-06-27 08:43:00,,0834.7,5.01,0.00,29.8,28.5,00.0,38.7,31.5,23.4,0000.0,0003.76,0007.83,0003.37
2022-06-27 08:44:00,,0834.7,5.00,0.00,29.8,28.5,00.0,38.7,31.5,23.3,0000.0,0003.74,0007.74,0003.37
2022-06-27 08:45:00,,0834.6,5.01,0.00,29.8,28.5,00.0,38.6,31.5,23.3,0000.0,0003.77,0007.82,0003.37
2022-06-27 08:46:00,,0834.7,4.99,0.00,29.7,28.5,00.0,38.6,31.5,23.3,0000.0,0003.77,0007.86,0003.38
2022-06-27 08:47:00,,0834.7,4.99,0.00,29.7,28.5,00.0,38.6,31.5,23.3,0000.0,0003.77,0007.86,0003.39
2022-06-27 08:48:00,,0834.6,5.00,0.00,29.7,28.5,00.0,38.6,31.5,23.3,0000.0,0003.77,0007.87,0003.39
2022-06-27 08:49:00,,0834.7,5.00,0.00,29.7,28.5,00.0,38.6,31.5,23.3,0000.0,0003.76,0007.81,0003.38
2022-06-27 08:50:00,,0834.6,4.99,0.00,29.7,28.5,00.0,38.6,31.5,23.3,0000.0,0003.74,0007.64,0003.38
2022-06-27 08:51:00,,0834.7,5.00,0.00,29.7,28.5,00.0,38.6,31.5,23.3,0000.0,0003.69,0007.28,0003.37
2022-06-27 08:52:00,,0834.7,4.99,0.00,29.7,28.5,00.0,38.6,31.5,23.3,0000.0,0003.70,0007.68,0003.37
2022-06-27 08:53:00,,0834.7,4.99,0.00,29.7,28.5,00.0,38.6,31.5,23.3,0000.0,0003.70,0007.60,0003.37
2022-06-27 08:54:00,,0834.7,5.00,0.00,29.7,28.5,00.0,38.6,31.5,23.3,0000.0,0003.70,0007.58,0003.37
2022-06-27 08:55:00,,0834.7,5.00,0.00,29.7,28.5,00.0,38.6,31.5,23.2,0000.0,0003.69,0007.58,0003.36
2022-06-27 08:56:00,,0834.7,5.00,0.00,29.7,28.5,00.0,38.6,31.5,23.2,0000.0,0003.66,0007.53,0003.36
2022-06-27 08:57:00,,0834.7,5.01,0.00,29.7,28.5,00.0,38.6,31.5,23.3,0000.0,0003.66,0007.54,0003.35
2022-06-27 08:58:00,,0834.7,5.00,0.00,29.7,28.5,00.0,38.6,31.5,23.3,0000.0,0003.65,0007.47,0003.35
2022-06-27 08:59:00,,0834.7,4.98,0.00,29.7,28.5,00.0,38.6,31.4,23.3,0000.0,0003.64,0007.44,0003.36
